This is the latest recevied weather packets stored in our database for station/object KB1WCR. If no packets are shown the sender has not sent any weather packets the latest 10 day(s).
| Time | Temp. | Humidity | Pressure | Rain* | Wind** | Luminosity | Snow |
|---|---|---|---|---|---|---|---|
| 1788209641 | 23.33° C | 59% | 1018.3 hPa | 0 mm | - | 259 W/m² | - |
| 1788209336 | 23.33° C | 59% | 1018.2 hPa | 0 mm | - | 274 W/m² | - |
| 1788209035 | 23.89° C | 58% | 1018.4 hPa | 0 mm | - | 290 W/m² | - |
| 1788208734 | 23.89° C | 59% | 1018.4 hPa | 0 mm | - | 305 W/m² | - |
| 1788208429 | 23.89° C | 59% | 1018.6 hPa | 0 mm | - | 319 W/m² | - |
| 1788208127 | 23.33° C | 63% | 1018.3 hPa | 0 mm | - | 334 W/m² | - |
| 1788207822 | 22.78° C | 61% | 1018.4 hPa | 0 mm | - | 348 W/m² | - |
| 1788207516 | 23.33° C | 60% | 1018.4 hPa | 0 mm | - | 362 W/m² | - |
| 1788207215 | 23.33° C | 59% | 1018.5 hPa | 0 mm | - | 373 W/m² | - |
| 1788206911 | 23.89° C | 59% | 1018.3 hPa | 0 mm | - | 388 W/m² | - |
| 1788206606 | 23.89° C | 57% | 1018.2 hPa | 0 mm | - | 399 W/m² | - |
| 1788206302 | 23.89° C | 55% | 1018.6 hPa | 0 mm | - | 414 W/m² | - |
| 1788205997 | 23.33° C | 55% | 1018.4 hPa | 0 mm | - | 427 W/m² | - |
| 1788205693 | 23.89° C | 52% | 1018.5 hPa | 0 mm | - | 442 W/m² | - |
| 1788205388 | 23.89° C | 53% | 1018.5 hPa | 0 mm | - | 454 W/m² | - |
| 1788205087 | 24.44° C | 51% | 1018.7 hPa | 0 mm | - | 466 W/m² | - |
| 1788204782 | 24.44° C | 50% | 1018.7 hPa | 0 mm | - | 481 W/m² | - |
| 1788204476 | 23.89° C | 50% | 1018.6 hPa | 0 mm | - | 493 W/m² | - |
| 1788204172 | 24.44° C | 50% | 1018.5 hPa | 0 mm | - | 502 W/m² | - |
| 1788203868 | 25° C | 50% | 1018.7 hPa | 0 mm | - | 515 W/m² | - |
| 1788203564 | 26.11° C | 42% | 1018.5 hPa | 0 mm | - | 526 W/m² | - |
| 1788203258 | 25° C | 42% | 1018.5 hPa | 0 mm | - | 539 W/m² | - |
| 1788202953 | 25.56° C | 42% | 1018.5 hPa | 0 mm | - | 549 W/m² | - |
| 1788202653 | 26.11° C | 41% | 1018.6 hPa | 0 mm | - | 560 W/m² | - |
| 1788202349 | 26.11° C | 39% | 1018.8 hPa | 0 mm | - | 570 W/m² | - |
* Rain latest hour (hover to see other rain measurements)
** Current wind speed in m/s (hover to see current wind gust speed)